When you browse on this site, cookies collect data to enhance your experience and personalize the content and advertising you see.
Visit our Privacy Policy to learn more. By continuing to use the site, you agree to this use of cookies and data.
  • In France
  • List of Countries
  • For 7 days
  • Water Temperature
  • Weather Map
  • Weather Widgets
  • user-avatar
    Login

    Hourly Weather Rio Branco

    Today, 10 December, Tuesday

    Time Temperature Precipitation Wind Pressure Humidity
    00:00 +24°C° 0 mm 0 mps 743 mmHg 75%
    01:00 +26°C° 0 mm 1 mps 743 mmHg 77%
    02:00 +24°C° 0 mm 0 mps 743 mmHg 80%
    03:00 +23°C° 0 mm 0 mps 743 mmHg 82%
    04:00 +23°C° 0 mm 0 mps 743 mmHg 84%
    05:00 +24°C° 0.1 mm 0 mps 743 mmHg 83%
    06:00 +25°C° 0.1 mm 0 mps 744 mmHg 81%
    07:00 +28°C° 0.1 mm 1 mps 745 mmHg 79%
    08:00 +30°C° 0 mm 1 mps 745 mmHg 72%
    09:00 +32°C° 0 mm 1 mps 745 mmHg 65%
    10:00 +34°C° 0 mm 1 mps 745 mmHg 58%
    11:00 +35°C° 0.2 mm 1 mps 744 mmHg 56%
    12:00 +36°C° 0.2 mm 1 mps 742 mmHg 54%
    13:00 +36°C° 0.2 mm 1 mps 741 mmHg 52%
    14:00 +36°C° 0.1 mm 1 mps 741 mmHg 55%
    15:00 +33°C° 0.1 mm 0 mps 740 mmHg 58%
    16:00 +32°C° 0.1 mm 0 mps 740 mmHg 61%
    17:00 +32°C° 0.8 mm 1 mps 740 mmHg 71%
    18:00 +29°C° 0.8 mm 2 mps 741 mmHg 81%
    19:00 +27°C° 0.8 mm 2 mps 741 mmHg 92%
    20:00 +26°C° 1 mm 2 mps 742 mmHg 93%
    21:00 +25°C° 1 mm 1 mps 743 mmHg 94%
    22:00 +23°C° 1 mm 0 mps 744 mmHg 96%
    23:00 +25°C° 1.7 mm 1 mps 743 mmHg 96%

    Tomorrow, 11 December, Wednesday

    Time Temperature Precipitation Wind Pressure Humidity
    00:00 +25°C° 1.7 mm 1 mps 743 mmHg 97%
    01:00 +25°C° 1.7 mm 1 mps 742 mmHg 98%
    02:00 +25°C° 0.2 mm 1 mps 742 mmHg 98%
    03:00 +25°C° 0.2 mm 1 mps 742 mmHg 98%
    04:00 +25°C° 0.2 mm 1 mps 742 mmHg 99%
    05:00 +25°C° 0 mm 1 mps 743 mmHg 98%
    06:00 +25°C° 0 mm 1 mps 744 mmHg 97%
    07:00 +26°C° 0 mm 1 mps 744 mmHg 97%
    08:00 +26°C° 0.2 mm 1 mps 744 mmHg 97%
    09:00 +26°C° 0.2 mm 1 mps 745 mmHg 96%
    10:00 +27°C° 0.2 mm 1 mps 745 mmHg 96%
    11:00 +27°C° 0 mm 1 mps 744 mmHg 92%
    12:00 +28°C° 0 mm 1 mps 743 mmHg 89%
    13:00 +28°C° 0 mm 1 mps 743 mmHg 86%
    14:00 +29°C° 0.3 mm 1 mps 742 mmHg 84%
    15:00 +29°C° 0.3 mm 1 mps 741 mmHg 82%
    16:00 +30°C° 0.3 mm 1 mps 741 mmHg 79%
    17:00 +28°C° 0.1 mm 1 mps 741 mmHg 84%
    18:00 +25°C° 0.1 mm 0 mps 741 mmHg 89%
    19:00 +24°C° 0.1 mm 0 mps 741 mmHg 93%
    20:00 +24°C° 0 mm 0 mps 742 mmHg 94%
    21:00 +23°C° 0 mm 0 mps 742 mmHg 94%
    22:00 +23°C° 0 mm 0 mps 742 mmHg 95%
    23:00 +23°C° 0 mm 0 mps 742 mmHg 96%

    Day after tomorrow, 12 December, Thursday

    Time Temperature Precipitation Wind Pressure Humidity
    00:00 +23°C° 0 mm 0 mps 742 mmHg 96%
    01:00 +23°C° 0 mm 0 mps 741 mmHg 97%
    02:00 +23°C° 0 mm 0 mps 741 mmHg 95%
    03:00 +23°C° 0 mm 0 mps 741 mmHg 94%
    04:00 +23°C° 0 mm 0 mps 742 mmHg 93%
    05:00 +23°C° 0 mm 0 mps 742 mmHg 92%
    06:00 +24°C° 0 mm 0 mps 742 mmHg 91%
    07:00 +24°C° 0 mm 0 mps 743 mmHg 90%
    08:00 +28°C° 0 mm 1 mps 743 mmHg 83%
    09:00 +29°C° 0 mm 1 mps 743 mmHg 76%
    10:00 +31°C° 0 mm 1 mps 743 mmHg 69%
    11:00 +32°C° 0.3 mm 1 mps 742 mmHg 66%
    12:00 +34°C° 0.3 mm 2 mps 741 mmHg 63%
    13:00 +35°C° 0.3 mm 2 mps 740 mmHg 60%
    14:00 +34°C° 0.6 mm 2 mps 740 mmHg 65%
    15:00 +33°C° 0.6 mm 1 mps 740 mmHg 70%
    16:00 +32°C° 0.6 mm 1 mps 740 mmHg 75%
    17:00 +30°C° 0.7 mm 1 mps 740 mmHg 81%
    18:00 +28°C° 0.7 mm 1 mps 741 mmHg 86%
    19:00 +27°C° 0.7 mm 1 mps 741 mmHg 92%
    20:00 +26°C° 0.5 mm 1 mps 742 mmHg 93%
    21:00 +26°C° 0.5 mm 1 mps 742 mmHg 94%
    22:00 +26°C° 0.5 mm 1 mps 743 mmHg 95%
    23:00 +26°C° 1.3 mm 1 mps 743 mmHg 96%

    13 December, Friday

    Time Temperature Precipitation Wind Pressure Humidity
    00:00 +25°C° 1.3 mm 1 mps 742 mmHg 97%
    01:00 +25°C° 1.3 mm 1 mps 742 mmHg 98%
    02:00 +25°C° 0.8 mm 1 mps 742 mmHg 98%
    03:00 +25°C° 0.8 mm 1 mps 742 mmHg 98%
    04:00 +25°C° 0.8 mm 1 mps 742 mmHg 98%
    05:00 +25°C° 1 mm 1 mps 743 mmHg 98%
    06:00 +25°C° 1 mm 1 mps 743 mmHg 98%
    07:00 +25°C° 1 mm 1 mps 744 mmHg 98%
    08:00 +25°C° 0.8 mm 1 mps 744 mmHg 97%
    09:00 +26°C° 0.8 mm 1 mps 745 mmHg 97%
    10:00 +26°C° 0.8 mm 1 mps 745 mmHg 96%
    11:00 +26°C° 0.3 mm 1 mps 744 mmHg 93%
    12:00 +27°C° 0.3 mm 1 mps 743 mmHg 90%
    13:00 +28°C° 0.3 mm 1 mps 743 mmHg 87%
    14:00 +28°C° 0 mm 1 mps 742 mmHg 85%
    15:00 +28°C° 0 mm 1 mps 742 mmHg 83%
    16:00 +28°C° 0 mm 1 mps 741 mmHg 81%
    17:00 +28°C° 0 mm 1 mps 742 mmHg 84%
    18:00 +27°C° 0 mm 1 mps 742 mmHg 87%
    19:00 +26°C° 0 mm 1 mps 743 mmHg 90%
    20:00 +26°C° 0 mm 1 mps 743 mmHg 92%
    21:00 +25°C° 0 mm 1 mps 743 mmHg 94%
    22:00 +25°C° 0 mm 1 mps 744 mmHg 95%
    23:00 +25°C° 0 mm 1 mps 743 mmHg 95%

    14 December, Saturday

    Time Temperature Precipitation Wind Pressure Humidity
    00:00 +25°C° 0 mm 1 mps 743 mmHg 95%
    01:00 +23°C° 0 mm 0 mps 743 mmHg 95%
    02:00 +25°C° 0 mm 1 mps 743 mmHg 95%
    03:00 +25°C° 0 mm 1 mps 743 mmHg 95%
    04:00 +25°C° 0 mm 1 mps 743 mmHg 94%
    05:00 +23°C° 0 mm 0 mps 743 mmHg 93%
    06:00 +24°C° 0 mm 0 mps 744 mmHg 92%
    07:00 +24°C° 0 mm 0 mps 745 mmHg 90%
    08:00 +25°C° 0.2 mm 0 mps 745 mmHg 85%
    09:00 +29°C° 0.2 mm 1 mps 745 mmHg 79%
    10:00 +30°C° 0.2 mm 1 mps 745 mmHg 74%
    11:00 +31°C° 1 mm 1 mps 744 mmHg 72%
    12:00 +32°C° 1 mm 1 mps 743 mmHg 71%
    13:00 +32°C° 1 mm 1 mps 742 mmHg 69%
    14:00 +32°C° 0.7 mm 1 mps 742 mmHg 74%
    15:00 +31°C° 0.7 mm 1 mps 741 mmHg 79%
    16:00 +30°C° 0.7 mm 1 mps 741 mmHg 84%
    17:00 +29°C° 0.3 mm 1 mps 741 mmHg 88%
    18:00 +27°C° 0.3 mm 1 mps 742 mmHg 91%
    19:00 +26°C° 0.3 mm 1 mps 742 mmHg 94%
    20:00 +26°C° 0 mm 1 mps 743 mmHg 95%
    21:00 +25°C° 0 mm 1 mps 743 mmHg 95%
    22:00 +25°C° 0 mm 1 mps 744 mmHg 96%
    23:00 +25°C° 0.1 mm 1 mps 743 mmHg 96%

    15 December, Sunday

    Time Temperature Precipitation Wind Pressure Humidity
    00:00 +25°C° 0.1 mm 1 mps 743 mmHg 96%
    01:00 +25°C° 0.1 mm 1 mps 743 mmHg 96%
    02:00 +23°C° 0.2 mm 0 mps 743 mmHg 96%
    03:00 +23°C° 0.2 mm 0 mps 743 mmHg 96%
    04:00 +23°C° 0.2 mm 0 mps 743 mmHg 96%
    05:00 +23°C° 0 mm 0 mps 744 mmHg 95%
    06:00 +24°C° 0 mm 0 mps 744 mmHg 93%
    07:00 +25°C° 0 mm 0 mps 745 mmHg 92%
    08:00 +29°C° 0 mm 1 mps 745 mmHg 82%
    09:00 +31°C° 0 mm 1 mps 745 mmHg 73%
    10:00 +33°C° 0 mm 1 mps 745 mmHg 63%
    11:00 +32°C° 1.8 mm 1 mps 744 mmHg 70%
    12:00 +32°C° 1.8 mm 1 mps 743 mmHg 77%
    13:00 +31°C° 1.8 mm 1 mps 742 mmHg 83%
    14:00 +31°C° 1.7 mm 1 mps 742 mmHg 86%
    15:00 +30°C° 1.7 mm 1 mps 741 mmHg 89%
    16:00 +29°C° 1.7 mm 1 mps 741 mmHg 92%
    17:00 +28°C° 0.1 mm 1 mps 741 mmHg 93%
    18:00 +27°C° 0.1 mm 1 mps 742 mmHg 94%
    19:00 +26°C° 0.1 mm 1 mps 742 mmHg 95%
    20:00 +26°C° 0.1 mm 1 mps 743 mmHg 95%
    21:00 +26°C° 0.1 mm 1 mps 743 mmHg 96%
    22:00 +25°C° 0.1 mm 1 mps 744 mmHg 96%
    23:00 +25°C° 0.2 mm 1 mps 744 mmHg 96%
    Show more